Overview Statistics Trail Chart Weather Telemetry Raw packets
 

This is the latest recevied weather packets stored in our database for station/object KG4GJX. If no packets are shown the sender has not sent any weather packets the latest 10 day(s).

<< 16 17 18 19 20 21 22 >>
Time Temp. Humidity Pressure Rain* Wind** Luminosity Snow
1788282337 32.78° C 58% 1021.3 hPa 0 mm - - -
1788281675 32.22° C 58% 1021.3 hPa 0 mm - - -
1788281012 32.22° C 61% 1021.3 hPa 0 mm - - -
1788280350 32.22° C 62% 1021.6 hPa 0 mm - - -
1788279688 32.22° C 58% 1021.6 hPa 0 mm - - -
1788279025 32.78° C 60% 1021.6 hPa 0 mm - - -
1788278363 32.22° C 62% 1021.6 hPa 0 mm - - -
1788277701 32.22° C 60% 1022 hPa 0 mm - - -
1788277039 31.67° C 62% 1022 hPa 0 mm - - -
1788276376 31.67° C 64% 1022 hPa 0 mm - - -
1788275714 31.11° C 68% 1022 hPa 0 mm - - -
1788275052 30° C 68% 1022 hPa 0 mm - - -
1788274389 29.44° C 73% 1022 hPa 0 mm - - -
1788273727 28.89° C 79% 1022 hPa 0 mm - - -
1788273064 28.33° C 83% 1022 hPa 0 mm - - -
1788272402 27.78° C 85% 1022 hPa 0 mm - - -
1788271739 27.22° C 90% 1022 hPa 0 mm - - -
1788271077 26.67° C 96% 1022 hPa 0 mm - - -
1788270415 25.56° C 100% 1022 hPa 0 mm - - -
1788269752 24.44° C 100% 1022 hPa 0 mm - - -
1788269090 23.89° C 100% 1022 hPa 0 mm - - -
1788268428 23.89° C 100% 1022 hPa 0 mm - - -
1788267765 23.33° C 100% 1022 hPa 0 mm - - -
1788267103 22.78° C 100% 1021.6 hPa 0 mm - - -
1788266441 22.22° C 100% 1021.6 hPa 0 mm - - -

* Rain latest hour (hover to see other rain measurements)
** Current wind speed in m/s (hover to see current wind gust speed)